Hourly Data Report for February 03, 2005

TORONTO CITY
ONTARIO

43°40'00.000" N
79°24'00.000" W
112.50 m
6158355
71508
XTO

Download Data

Hourly Data (February 2005)
Hourly Data Report for February 3, 2005
TIME
LST
Temp Definition
°C
Dew Point Definition
°C
Rel Hum Definition
%
Precip. Amount Definition
mm

Wind Dir Definition
10's deg

Wind Spd Definition
km/h
Visibility Definition
km
Stn Press Definition
kPa
Hmdx Definition


Wind Chill Definition


Weather Definition


00:00 -1.5 -3.8 84   LegendMM LegendMM   101.29     LegendNANA
01:00 -1.7 -4.0 84   LegendMM LegendMM   101.21     LegendNANA
02:00 -1.8 -4.1 84   LegendMM LegendMM   101.15     LegendNANA
03:00 -2.5 -5.0 83   LegendMM LegendMM   101.09     LegendNANA
04:00 -2.0 -4.4 84   LegendMM LegendMM   100.99     LegendNANA
05:00 -2.1 -4.7 82   LegendMM LegendMM   100.97     LegendNANA
06:00 -1.8 -4.6 81   LegendMM LegendMM   100.98     LegendNANA
07:00 -1.8 -4.7 81   LegendMM LegendMM   101.01     LegendNANA
08:00 -1.6 -4.3 82   LegendMM LegendMM   101.02     LegendNANA
09:00 -0.7 -3.6 81   LegendMM LegendMM   101.05     LegendNANA
10:00 -0.1 -3.0 81   LegendMM LegendMM   101.00     LegendNANA
11:00 1.4 -2.3 76   LegendMM LegendMM   100.94     LegendNANA
12:00 1.6 -2.0 77   LegendMM LegendMM   100.90     LegendNANA
13:00 1.7 -2.9 71   LegendMM LegendMM   100.84     LegendNANA
14:00 2.6 -2.8 68   LegendMM LegendMM   100.79     LegendNANA
15:00 0.8 -1.7 83   LegendMM LegendMM   100.79     LegendNANA
16:00 1.3 -1.5 82   LegendMM LegendMM   100.82     LegendNANA
17:00 1.3 -1.6 81   LegendMM LegendMM   100.84     LegendNANA
18:00 0.5 -1.5 86   LegendMM LegendMM   100.89     LegendNANA
19:00 0.7 -1.2 87   LegendMM LegendMM   100.98     LegendNANA
20:00 0.9 -1.3 85   LegendMM LegendMM   101.02     LegendNANA
21:00 0.7 -1.5 85   LegendMM LegendMM   101.10     LegendNANA
22:00 0.1 -2.0 86   LegendMM LegendMM   101.09     LegendNANA
23:00 -1.0 -2.8 88   LegendMM LegendMM   101.12     LegendNANA

Notes on Data Quality.

Legend

  • E = Estimated
  • M = Missing
  • NA = Not Available*
  • [empty] = Indicates an unobserved value
Date modified: